Regional Weather Roundup
Issued by NWS

Home | Current Version | Previous Version | Text Only | Print | Product List | Glossary On
Versions: 1 2 3 4 5 6 7 8 9 10 11 12 13 14 15 16 17 18 19 20 21 22 23 24 25 26 27 28 29 30 31 32 33 34 35 36 37 38 39 40 41 42 43 44 45 46 47 48 49 50
000
ASCA42 TJSJ 210211
RWRPR
PUERTO RICO/U.S. VIRGIN ISLANDS HOURLY WEATHER ROUNDUP
NATIONAL WEATHER SERVICE SAN JUAN PR
1000 PM AST WED AUG 20 2014

PRZ001-004-210300-
PUERTO RICO

CITY           SKY/WX    TMP DP  RH WIND       PRES   REMARKS
SAN JUAN LMM   PTCLDY    82  79  89 E9        30.06R HX  93
CEIBA          MOCLDY    82  75  78 NE10      30.08R
$$

PRZ006-007-210300-
U.S. VIRGIN ISLANDS

CITY           SKY/WX    TMP DP  RH WIND       PRES   REMARKS
CHARLOTTE AMA  MOCLDY    82  75  78 E13       30.05S
CHRISTIANSTED  CLEAR     81  75  83 NE7       30.05R
$$

HOURLY WEATHER ROUNDUP FOR THE NEWS MEDIA

CITY           SKY/WX    TMP DP  RH WIND       PRES   REMARKS
MIAMI          PTCLDY    85  75  72 SE7       30.09S HX  93
ORLANDO        PTCLDY    85  77  77 SE8       30.09R HX  95
NEW YORK       MOCLDY    72  61  68 SE5       30.02F
NEWARK         MOCLDY    73  61  65 S7        30.01S
CHICAGO        PTCLDY    78  67  68 W10       29.91R
HARTFORD       PTCLDY    56  55  97 CALM      30.04S
BOSTON         PTCLDY    64  61  90 E3        30.06R
DALLAS         CLEAR     91  69  48 SE18      29.90R HX  96
PHILADELPHIA   CLOUDY    74  61  63 SE6       30.00S



USA.gov is the U.S. government's official web portal to all federal, state and local government web resources and services.